Regional Weather Roundup
Issued by NWS Bismarck, ND

Home | Current Version | Previous Version | Text Only | Print | Product List | Glossary On
Versions: 1 2 3 4 5 6 7 8 9 10 11 12 13 14 15 16 17 18 19 20 21 22 23 24 25 26 27 28 29 30 31 32 33 34 35 36 37 38 39 40 41 42 43 44 45 46 47 48 49 50
000
ASUS43 KBIS 291410
RWRBIS

NWR BROADCAST TEXT
NATIONAL WEATHER SERVICE BISMARCK ND
900 AM CDT WED JUL 29 2015

NOTE: "FAIR" INDICATES FEW OR NO CLOUDS BELOW 12,000 FEET WITH NO
SIGNIFICANT WEATHER AND/OR OBSTRUCTIONS TO VISIBILITY.


CITY           SKY/WX    TMP DP  RH WIND       PRES   REMARKS
WILLISTON      PTSUNNY   61  51  70 W17       30.02R
MINOT          MOSUNNY   66  51  58 W21G28    29.90R
MINOT AFB      MOSUNNY   66  55  67 W20G26    29.89R
BISMARCK       SUNNY     68  48  48 W20G26    30.01R
DICKINSON      PTSUNNY   61  46  57 W13       30.08R
GARRISON         N/A     65  52  62 W18G28    29.97R
HETTINGER ARPT SUNNY     63  43  48 W18       30.13S
JAMESTOWN      SUNNY     66  51  58 W22G33    29.90R
BEACH          FAIR      59  45  58 W15       30.13S
CROSBY         FAIR      63  55  77 W15G22    29.97R
HARVEY         FAIR      66  54  63 W22G29    29.89R
HAZEN          FAIR      64  48  55 W12G22    30.01R
MANDAN         FAIR      66  48  52 W22G28    30.02S
OAKES            N/A     68  54  60 W17G30    29.94S
STANLEY        FAIR      61  55  82 W13G21    29.98R
$$

CITY           SKY/WX    TMP DP  RH WIND       PRES   REMARKS
GRAND FORKS    CLOUDY    69  53  56 W28G37    29.70R
GRAND FORKS AF PTSUNNY   69  53  56 NW26G35   29.72R
DEVILS LAKE    SUNNY     66  52  59 W26G37    29.78R
FARGO          SUNNY     71  53  52 W26G37    29.80R
CAVALIER       PTSUNNY   66  57  72 W21G37    29.64R
GRAFTON        CLOUDY    66  57  72 W24G30    29.67R
GWINNER        FAIR      68  52  56 W17G26    29.92S
LANGDON        FAIR      64  55  72 W31G41    29.70R
ROLLA          FAIR      64  54  68 W24G35    29.79R
WALHALLA       FAIR      66  59  77 MISG      29.64R
$$

CITY           SKY/WX    TMP DP  RH WIND       PRES   REMARKS
ABERDEEN       SUNNY     67  51  56 SW9       30.02R
MOBRIDGE       SUNNY     69  48  47 W12       30.05R
BUFFALO          N/A     64  41  42 W17       30.12R
RAPID CITY     SUNNY     67  45  45 W14       30.24S
GLASGOW        SUNNY     57  48  72 W5        30.11R
SIDNEY         PTSUNNY   64  48  55 W14       30.07R
WOLF POINT     PTSUNNY   58  50  75 SW13      30.10R
GLENDIVE       PTSUNNY   64  46  52 W13       30.13S
MILES CITY     SUNNY     61  44  53 W12       30.18R
BAKER          MOSUNNY   64  42  44 W14       30.17R
$$

CITY           SKY/WX    TMP DP  RH WIND       PRES   REMARKS
BILLINGS       MOSUNNY   56  38  50 SW14      30.27R
GREAT FALLS    SUNNY     61  40  45 SW13      30.23R
REGINA         MOSUNNY   61  54  77 W14       29.94R
ESTEVAN        PTSUNNY   63  54  72 W22G28    29.93R
$$



USA.gov is the U.S. government's official web portal to all federal, state and local government web resources and services.